Wind_Speed
44 44 44 44 44 45 45 45 46 47 48 48 48 48 48 48 48 48 48 48 49 49 49 49 48 48 47 47 47 47 47 48 48 48 47 46 44 42 42 43 43 43 44 45 45 45 46 47 47 47 47 48 49 49 50 51 52 52 52 54 55 55 56 59 60 57 56 58 59 61 63 64 65 65 65 66 67 69 71 72 72 72 71 71 70
45 45 44 44 44 45 45 46 47 48 49 49 49 49 48 48 48 48 49 50 50 50 50 49 48 47 47 47 48 48 49 48 47 46 46 44 43 42 42 43 44 45 46 46 47 47 48 49 49 49 49 50 50 51 51 51 52 52 52 54 55 55 57 60 60 59 58 58 60 62 64 65 66 66 66 68 69 71 73 74 75 75 74 74 73
46 45 44 44 45 45 46 47 48 49 50 50 50 49 49 50 50 50 51 51 51 51 50 49 48 47 48 48 49 49 49 47 46 45 45 44 44 44 45 46 47 48 48 49 49 49 50 51 51 51 52 53 53 53 53 53 53 53 53 54 54 55 57 59 60 59 59 59 61 63 65 68 69 68 68 69 70 72 73 75 77 77 78 78 77
46 46 46 46 47 47 48 48 49 50 50 50 50 51 51 52 52 52 52 52 51 50 49 48 48 48 48 48 48 48 47 46 46 45 46 46 47 49 50 51 51 51 50 50 50 51 52 53 53 54 54 55 55 55 55 55 56 56 56 56 56 56 57 59 59 59 60 61 62 63 66 70 72 70 70 71 72 73 75 77 79 80 81 81 80
46 47 48 48 49 49 49 50 50 50 50 50 51 52 53 53 53 53 52 51 50 49 48 48 48 48 47 47 46 46 46 46 46 47 48 49 51 52 52 53 53 53 53 52 53 53 54 55 55 56 57 57 57 57 57 58 58 59 59 59 58 57 58 60 60 59 60 63 65 65 67 70 72 72 74 74 74 77 81 80 80 80 80 80 79
48 49 49 50 50 51 51 51 52 51 52 52 53 53 53 53 53 52 52 50 49 49 48 47 47 46 44 43 43 43 44 45 47 48 49 51 51 52 52 52 53 54 55 56 56 57 57 58 58 59 59 59 59 59 60 61 61 62 62 61 60 59 59 60 60 60 61 64 67 69 72 75 76 77 77 75 74 79 82 81 80 78 76 75 76
50 50 51 51 52 53 53 53 53 54 54 55 55 55 54 53 52 51 50 49 48 48 48 47 45 43 42 41 42 43 44 45 46 47 48 49 50 51 52 53 54 55 56 57 59 60 61 61 61 60 60 60 61 61 62 63 64 64 65 64 62 62 61 61 60 60 61 63 67 72 77 81 82 80 78 76 77 80 81 81 79 76 73 72 73
52 52 53 53 54 54 54 55 56 57 57 57 56 55 53 52 51 49 49 48 48 48 47 46 43 41 41 42 43 44 44 45 46 47 49 50 51 52 53 54 55 56 57 58 59 61 62 62 62 62 62 62 62 63 63 65 66 66 67 67 66 65 64 63 62 62 62 64 66 69 73 76 76 74 73 75 78 80 80 80 78 76 73 70 69
56 55 55 55 55 55 56 57 58 58 58 57 56 53 51 50 49 48 48 47 48 48 47 45 44 43 44 45 46 46 47 48 50 52 53 54 55 55 55 56 56 57 57 58 59 60 61 62 63 63 64 64 64 64 65 66 67 68 68 69 69 68 67 65 64 65 65 66 66 67 69 71 71 70 71 73 75 77 78 78 77 75 73 70 68
58 58 58 58 58 59 59 59 58 57 56 55 53 51 50 49 48 48 48 48 48 48 47 47 46 47 49 50 51 52 52 54 55 57 58 59 59 59 59 59 59 59 59 60 60 61 62 63 63 64 64 65 65 66 66 67 69 69 70 71 71 70 69 68 68 68 68 68 68 68 69 70 71 72 72 74 76 78 78 78 78 77 75 72 71
60 60 60 61 61 61 59 58 56 55 54 53 52 50 49 48 47 48 48 49 49 49 49 49 50 52 54 54 55 56 56 58 60 61 62 63 63 63 63 62 62 61 62 63 63 64 64 64 64 64 64 64 65 66 67 69 70 70 71 72 71 70 69 68 68 69 69 69 69 70 71 72 72 73 74 76 78 79 79 79 80 79 77 76 74
62 62 62 62 61 59 57 55 54 53 52 51 50 49 48 48 48 48 48 48 48 48 50 51 53 56 57 57 58 58 59 60 63 64 66 66 67 67 66 65 65 64 65 66 66 66 67 66 66 65 65 65 65 66 67 69 71 71 72 72 72 71 69 68 68 69 70 71 72 72 72 72 73 74 76 78 78 78 78 80 81 81 80 78 76
64 62 61 59 58 56 55 53 51 51 50 50 50 49 49 49 49 49 48 48 48 49 52 54 56 58 59 59 59 59 61 63 65 67 68 69 70 70 69 68 67 67 68 69 69 69 69 69 68 67 67 67 67 67 68 69 71 72 73 73 72 71 70 69 68 68 69 71 72 72 72 73 74 76 77 76 76 77 79 81 82 83 83 81 78
62 60 58 57 55 54 53 51 50 50 50 50 50 50 50 50 50 50 50 51 52 53 54 56 57 59 59 60 61 62 63 66 68 70 71 71 71 71 70 70 70 70 71 72 72 72 71 71 71 70 70 70 69 69 69 70 71 72 73 73 73 71 70 69 69 69 71 72 72 73 74 75 76 76 77 77 79 81 82 83 83 84 85 84 82
58 57 56 55 54 53 53 52 51 51 51 51 52 52 52 52 53 53 53 54 54 55 56 57 58 60 61 62 64 65 67 69 71 72 72 72 72 72 72 72 72 73 74 75 74 74 73 74 74 73 73 73 73 72 72 72 73 73 73 73 73 73 72 73 73 74 76 77 78 78 77 77 77 78 80 82 83 84 83 82 82 83 85 85 83
56 56 56 56 56 56 56 55 55 55 55 56 56 55 55 55 56 56 56 57 58 58 60 61 62 63 65 66 68 68 69 71 72 72 73 73 73 74 74 75 76 77 77 77 76 75 75 76 77 77 76 76 76 76 76 76 76 77 76 76 77 77 77 77 78 80 82 84 83 82 80 79 78 80 83 84 82 80 79 78 78 80 82 83 82
58 57 58 58 59 59 59 59 60 61 61 61 59 58 58 58 59 60 60 61 62 63 64 65 66 67 68 70 71 71 71 72 72 73 74 75 75 76 77 78 80 81 80 79 78 78 79 79 80 80 80 80 80 80 80 81 81 81 81 81 81 82 82 83 85 86 86 85 83 81 80 79 80 82 83 82 78 75 74 74 74 75 78 80 79
61 61 62 63 63 64 64 65 65 65 66 65 64 63 62 63 64 64 65 66 66 67 68 69 70 71 71 72 73 73 73 73 74 74 75 76 78 79 81 82 84 84 83 82 82 83 83 83 83 84 83 83 83 84 85 85 85 85 86 86 87 86 87 88 88 86 83 81 81 81 80 80 80 81 81 79 77 75 73 72 71 72 75 76 76
65 66 67 68 69 69 69 69 68 68 68 68 67 67 67 67 68 69 69 70 70 71 71 72 72 73 74 74 75 76 76 75 76 77 78 80 81 83 85 86 87 87 87 87 87 87 87 86 86 85 84 83 82 83 83 84 85 86 86 87 87 86 86 86 84 81 78 77 77 79 80 80 79 79 80 80 80 78 76 73 70 70 71 73 74
70 71 72 73 73 73 72 72 71 71 71 71 70 71 71 71 72 73 73 74 74 73 74 74 75 75 76 77 78 79 79 79 80 81 82 83 85 87 89 90 90 91 91 90 89 88 87 86 84 83 81 79 78 78 78 80 81 82 82 82 81 80 79 79 77 76 75 74 74 77 79 80 79 80 81 82 82 81 77 71 66 65 68 71 72
74 75 75 76 75 75 75 75 74 74 74 74 73 74 74 75 76 76 77 77 77 76 77 77 78 78 79 80 81 82 83 83 84 85 86 88 90 92 93 93 93 93 92 90 88 86 85 83 81 78 76 74 73 73 74 75 76 77 77 76 74 72 73 73 72 72 72 73 74 77 78 78 79 79 80 81 80 76 69 63 62 64 68 71 70
77 78 78 78 78 78 78 78 77 77 77 77 76 76 77 79 79 80 80 80 80 80 80 80 81 82 82 82 83 84 85 86 87 88 91 93 95 96 96 95 94 93 91 89 87 85 83 81 78 76 73 71 71 71 71 72 73 73 73 73 72 71 71 71 71 71 72 73 75 76 77 79 79 80 80 78 73 65 61 61 65 67 69 68 66
79 79 79 80 80 80 80 79 80 80 79 80 80 79 80 81 82 82 83 83 82 82 82 83 84 85 85 85 86 86 87 88 90 93 95 97 98 99 99 97 96 94 92 90 87 85 83 80 77 74 72 70 70 70 70 71 72 72 72 72 72 72 73 73 72 71 71 72 72 73 74 74 74 74 72 68 64 61 63 66 68 67 65 63 63
80 81 81 81 81 81 81 81 82 82 82 82 82 82 82 83 83 84 85 85 85 85 85 86 87 88 88 88 87 88 89 90 93 95 98 99 100 101 100 98 96 95 93 90 87 85 81 78 75 73 71 70 70 71 71 72 73 73 73 73 72 72 71 71 71 71 71 71 71 71 70 68 66 64 62 61 62 64 67 66 64 61 60 61 63
82 83 84 84 84 84 84 84 85 85 85 85 85 84 84 85 85 85 86 86 87 87 88 89 90 90 90 90 89 90 92 94 96 98 100 101 101 100 99 97 95 94 92 90 87 83 79 76 73 71 70 70 72 73 73 74 74 74 74 74 73 72 70 69 69 70 70 68 67 68 68 66 64 62 61 61 63 65 64 61 59 59 60 62 63
85 86 87 87 87 87 87 87 87 87 87 86 86 85 85 85 86 87 87 88 89 90 91 92 93 92 92 92 93 93 95 96 98 100 101 100 99 98 97 96 94 92 90 88 86 83 79 76 73 72 71 72 74 75 74 75 75 75 74 73 73 72 71 69 68 69 68 67 65 65 65 66 64 62 61 63 64 63 60 58 59 60 61 61 61
87 89 90 90 90 90 90 90 89 88 87 86 85 85 86 87 89 90 91 92 93 94 95 95 95 95 95 95 96 96 96 98 100 101 100 99 98 98 97 95 93 91 89 87 85 83 81 78 76 74 73 73 74 73 73 73 74 73 72 72 72 71 70 68 68 68 68 66 65 65 66 66 63 60 60 63 63 60 58 58 59 59 59 59 60
89 90 91 91 91 91 91 91 90 89 87 86 86 87 89 91 93 94 94 95 96 96 97 97 97 97 97 97 98 98 99 101 102 101 99 99 98 97 96 95 93 91 88 86 84 82 80 78 77 75 73 72 71 70 70 70 71 71 70 70 70 69 67 66 66 66 66 65 65 65 65 64 61 60 61 61 59 57 57 57 57 57 58 60 61
89 90 91 91 91 91 92 91 90 88 86 87 88 91 93 95 95 95 95 96 97 98 99 99 99 99 99 100 102 104 104 104 103 102 100 99 98 96 95 93 91 89 87 85 83 80 78 77 75 73 72 70 69 68 68 68 69 69 69 69 68 66 63 61 61 61 61 60 60 60 60 60 59 59 58 57 56 56 56 57 57 58 59 60 60
88 90 91 91 91 91 91 90 89 88 89 92 94 95 95 96 96 96 96 97 99 101 102 102 101 102 104 105 107 109 108 106 104 102 101 99 97 95 93 91 89 87 84 82 80 78 75 74 72 71 70 69 68 67 67 67 66 66 67 67 66 62 58 56 55 55 55 54 54 54 54 54 54 53 53 53 54 55 55 56 56 57 58 57 56
87 87 88 89 90 91 92 92 92 94 97 99 100 100 99 97 97 98 100 101 103 104 106 106 107 109 111 112 111 111 109 106 104 102 100 97 95 93 91 88 85 82 80 78 76 74 72 71 70 69 68 67 67 66 65 63 63 64 64 64 61 57 54 53 54 55 55 54 52 51 50 49 49 50 51 52 53 53 54 54 54 54 54 53 51
86 87 89 91 94 96 98 99 101 103 103 104 104 104 103 101 99 99 101 103 106 108 110 112 113 114 115 114 112 110 107 104 101 98 95 93 91 88 85 82 79 77 75 73 71 70 69 68 68 67 66 65 64 63 61 60 60 61 61 60 57 54 52 52 53 54 53 50 49 48 47 47 48 49 49 49 50 50 50 50 51 51 50 50 49
93 94 96 99 100 102 104 106 107 107 106 105 105 105 105 105 104 102 102 104 108 111 112 113 114 114 114 112 109 106 102 99 96 92 89 87 85 83 80 78 75 73 72 70 69 68 68 67 66 65 64 63 61 59 57 57 57 57 56 53 50 48 48 49 52 54 53 50 49 50 49 49 48 46 46 46 46 47 47 48 48 49 48 48 48
101 103 105 106 107 108 109 109 109 109 108 108 108 108 108 108 108 108 109 111 113 113 111 110 110 109 107 105 102 99 95 92 89 86 84 82 81 79 77 75 74 73 72 71 69 68 68 66 65 63 61 59 56 54 54 53 53 51 49 44 41 39 42 45 49 51 51 50 49 47 46 44 43 43 43 43 44 45 46 47 47 48 48 48 48
107 109 112 113 114 114 113 113 112 112 112 112 111 112 112 111 112 113 115 116 114 110 106 103 102 100 98 96 93 91 89 86 84 82 81 80 79 78 77 76 76 75 74 72 71 70 67 64 61 59 56 53 52 51 51 49 47 44 40 37 35 35 36 38 41 42 41 41 41 40 40 40 40 41 42 42 43 44 46 46 47 47 47 48 48
115 116 118 119 119 119 118 117 116 116 115 114 114 114 114 114 115 115 115 112 107 102 98 96 94 93 91 90 88 86 85 84 83 81 81 81 80 79 78 78 77 76 74 73 70 67 63 59 55 53 51 50 50 49 47 44 41 38 35 33 33 34 34 34 35 36 36 36 37 38 39 40 41 41 42 43 44 45 46 47 47 47 47 47 48
119 120 120 120 120 119 119 118 117 116 115 114 113 112 112 111 111 110 107 104 100 98 96 94 92 91 90 89 88 87 86 85 84 83 83 82 81 80 79 78 76 74 71 68 64 60 56 53 49 47 47 47 47 46 44 42 40 37 36 35 35 35 35 36 36 37 38 39 40 41 42 42 42 43 44 44 45 46 46 47 46 46 47 47 47
115 114 113 113 113 113 113 112 112 111 110 108 107 107 106 105 104 103 101 100 98 97 95 94 92 91 90 89 89 87 86 85 84 83 82 81 80 78 75 74 71 68 64 60 56 52 48 44 42 41 42 42 42 42 42 41 39 39 39 40 40 40 41 41 41 42 42 42 42 42 42 42 43 43 44 45 45 45 44 45 45 45 45 46 46
108 107 107 107 106 106 106 105 105 104 104 103 102 102 101 100 99 98 98 97 96 95 93 92 90 89 88 87 86 85 84 82 81 79 78 76 74 71 68 65 61 58 54 49 45 42 39 37 38 40 41 41 42 42 40 39 40 41 43 44 44 44 44 44 44 43 42 42 41 41 40 41 41 41 42 42 42 42 42 43 43 44 45 46 47
103 103 102 102 102 102 101 101 101 100 100 99 98 98 97 96 96 95 94 93 92 91 90 88 87 86 85 84 82 80 79 77 75 73 71 68 65 61 57 54 50 47 44 40 37 35 35 37 40 43 44 44 44 42 40 40 42 43 44 44 44 43 42 41 41 40 39 38 37 37 37 37 38 38 38 39 39 40 41 42 43 45 46 48 49
99 99 99 99 99 98 98 97 97 97 96 95 94 94 93 92 91 90 89 88 87 86 85 84 83 82 81 79 76 74 72 70 67 64 61 58 55 51 48 44 42 40 38 37 37 38 40 43 46 48 48 47 46 44 42 42 43 42 42 42 41 40 38 36 36 35 34 33 34 34 34 35 36 36 37 38 39 41 42 44 45 47 48 50 51
96 96 95 95 95 95 94 94 93 92 91 90 89 89 87 86 85 84 83 83 82 81 79 78 77 76 74 72 69 67 65 62 59 55 51 48 45 43 41 39 37 37 37 39 41 44 46 47 49 49 49 47 46 44 42 41 40 40 40 40 39 37 35 34 33 33 33 33 33 34 34 35 36 37 38 40 41 43 44 46 47 49 50 51 52
93 93 92 91 91 90 89 88 87 86 85 84 83 82 81 80 79 78 77 77 76 75 73 71 70 68 66 63 61 58 56 53 48 44 41 40 39 38 37 36 36 36 38 41 43 44 45 46 46 46 44 42 41 40 39 39 40 41 40 38 37 36 35 35 35 35 34 34 35 35 35 37 38 39 41 42 43 45 46 48 49 50 51 53 54
88 87 86 85 85 84 83 82 81 80 79 79 78 77 75 74 73 72 71 70 69 67 65 63 61 58 55 53 51 48 45 42 39 37 36 36 36 35 35 35 36 37 39 41 42 43 44 45 44 42 40 39 38 38 39 40 42 41 39 36 35 34 34 35 35 35 35 35 36 36 38 39 40 41 43 44 46 47 48 50 51 52 54 55 56
83 82 80 79 78 77 77 76 76 75 74 74 73 72 70 67 65 64 64 63 61 57 54 52 49 46 43 42 40 37 35 34 34 35 36 36 36 35 35 35 37 38 40 41 42 43 43 43 41 39 38 39 39 40 41 41 41 39 36 35 34 34 35 35 35 35 36 37 38 39 40 41 42 44 45 47 48 49 51 52 53 54 56 57 58
76 75 74 73 72 71 71 70 70 69 68 67 66 64 62 59 56 55 55 54 52 48 43 39 37 35 35 34 33 32 32 33 34 36 37 37 37 36 36 36 38 39 41 42 42 42 42 40 37 37 39 41 41 41 41 40 38 36 35 35 35 35 36 36 37 37 38 39 40 41 43 44 45 47 48 49 50 52 53 54 55 56 57 58 59
68 67 67 66 65 64 64 64 63 62 60 58 57 55 52 50 49 48 48 47 44 39 35 33 32 31 31 32 33 33 35 35 35 36 37 38 38 37 37 37 39 40 41 41 41 40 39 38 38 39 41 42 42 42 41 38 36 35 35 35 36 36 37 38 39 40 41 42 43 44 45 47 48 49 50 51 52 53 54 55 56 57 58 59 61
61 60 60 59 58 57 56 56 55 54 53 51 49 47 45 44 43 43 43 41 38 35 33 34 34 35 35 36 36 37 36 35 34 35 36 37 37 36 36 37 38 39 39 39 39 39 38 39 40 41 42 42 42 40 38 36 35 35 36 36 37 38 39 40 41 42 43 44 45 46 47 49 50 51 52 52 53 54 56 57 58 59 60 60 61
56 55 54 53 51 50 49 48 48 47 46 45 43 42 41 40 39 39 38 37 35 34 34 35 37 38 39 39 39 39 38 37 36 36 36 36 36 36 36 36 37 39 39 39 39 39 39 40 40 40 40 39 38 37 36 35 35 36 37 38 39 40 41 42 43 44 45 46 47 48 49 50 51 52 53 54 55 57 57 58 59 60 61 61 62
52 51 49 48 47 45 44 43 43 43 42 41 39 38 37 37 36 35 34 34 34 35 35 36 38 40 41 41 40 40 40 40 39 38 37 37 37 37 37 37 38 39 39 39 38 38 38 39 38 38 37 36 36 36 36 37 37 38 39 40 41 41 42 43 44 45 46 48 49 50 51 52 53 54 55 56 57 58 59 60 61 61 62 63 64
48 47 45 44 43 42 41 40 40 39 38 37 36 35 34 34 34 35 35 35 36 37 38 39 40 41 41 41 41 40 41 41 41 40 38 37 38 38 38 38 38 38 37 37 36 36 37 37 37 37 37 37 37 38 39 39 40 40 41 42 42 43 44 45 46 47 49 50 51 52 53 54 55 56 57 58 59 60 61 62 63 64 64 65 66
Wind_Direction
282 281 281 281 281 281 282 283 283 284 285 285 286 287 287 288 288 288 288 287 287 286 286 286 285 285 284 284 285 285 286 288 290 291 293 293 294 295 296 297 298 298 298 299 299 300 300 301 302 304 304 303 303 303 302 301 300 300 298 296 294 291 288 287 289 290 289 287 286 285 285 285 286 287 288 288 289 290 290 291 292 293 293 293 294
281 280 279 279 280 281 281 282 283 284 285 285 287 287 288 288 288 288 288 287 286 286 285 285 284 284 285 285 285 286 287 288 289 290 291 292 293 294 295 296 297 298 299 299 300 300 300 300 301 303 303 302 302 302 302 301 300 300 298 297 294 291 289 289 289 291 291 289 287 285 285 287 287 288 288 289 290 290 292 292 293 293 292 292 293
280 280 280 281 281 281 282 282 282 283 284 284 286 286 287 287 287 287 287 286 286 285 284 284 284 284 285 286 287 287 288 288 288 288 290 291 293 294 295 295 296 297 297 298 298 298 299 299 300 301 300 300 300 300 301 301 300 299 298 296 294 292 291 290 290 292 291 289 287 285 285 286 286 286 285 286 288 290 292 292 292 292 292 293 292
281 282 283 283 283 282 282 281 281 282 282 283 284 285 286 286 286 286 285 285 284 283 283 283 282 283 285 286 287 287 288 288 287 288 289 291 292 293 294 295 295 295 296 296 297 297 298 299 299 300 299 298 298 299 299 299 298 298 297 296 296 294 293 291 291 291 290 289 288 286 285 284 283 283 283 285 288 291 292 293 294 294 293 293 292
281 282 283 283 283 282 281 280 280 280 281 282 283 284 284 284 284 284 284 283 282 282 281 281 282 283 284 284 285 286 287 288 288 289 290 291 292 293 294 295 296 296 296 296 296 297 298 298 299 299 298 298 298 298 298 297 297 296 296 296 295 294 292 291 291 291 291 290 290 289 287 285 283 282 282 283 287 290 293 295 295 294 294 294 293
281 282 282 282 282 281 280 280 280 281 282 282 283 283 283 283 282 282 281 281 281 280 280 281 282 282 282 283 284 286 287 288 289 291 292 293 293 294 295 295 296 296 296 296 296 296 297 297 298 298 297 297 297 297 297 296 296 295 295 295 294 293 292 291 292 292 292 291 291 289 286 284 282 280 279 278 282 288 292 294 294 294 295 295 293
283 283 283 282 282 281 281 282 283 283 283 283 283 283 282 282 281 280 279 278 278 278 279 280 280 279 280 282 284 285 287 288 290 291 292 293 294 294 295 295 295 295 295 295 295 295 296 296 297 297 296 296 295 295 295 294 294 294 294 294 293 292 292 291 292 291 289 288 286 284 283 282 281 280 278 278 283 288 291 292 293 294 294 293 291
285 284 283 283 282 283 283 284 284 283 283 283 282 282 281 280 279 277 276 275 275 276 276 276 276 276 279 282 284 286 288 290 291 292 293 294 295 295 296 295 295 294 294 293 294 294 295 295 296 296 295 294 293 293 292 292 292 292 292 293 292 291 291 292 292 291 288 287 287 285 284 284 284 284 283 283 286 289 290 290 291 292 293 292 289
286 286 286 286 285 285 284 284 283 283 282 282 281 281 280 278 277 276 274 274 274 274 274 272 273 276 280 283 285 287 288 290 291 292 294 295 295 296 296 296 296 295 294 294 294 294 294 294 295 294 294 293 292 291 291 290 290 290 290 290 290 290 290 290 290 289 289 289 289 288 286 287 287 288 288 288 289 289 289 290 291 292 293 293 290
287 288 288 287 287 286 284 284 283 282 281 281 280 280 279 278 277 275 274 274 274 272 271 270 272 276 280 283 285 287 288 289 291 293 294 295 296 296 297 297 296 295 295 295 295 294 294 294 294 293 292 292 291 290 289 289 288 288 288 288 288 288 289 289 289 289 289 288 287 286 286 287 289 289 289 289 289 290 291 292 292 292 293 292 290
287 287 287 286 285 284 283 282 281 281 280 280 280 280 279 278 277 276 276 276 274 272 270 270 274 278 281 283 285 286 288 290 292 293 294 295 296 296 297 297 296 296 296 296 296 295 295 294 294 293 292 291 289 289 288 287 287 287 287 287 286 287 287 288 289 289 288 287 287 286 287 288 288 289 289 289 290 291 293 293 292 292 292 291 288
285 284 284 283 282 282 281 281 280 280 280 280 279 279 278 278 278 277 277 276 275 273 271 272 276 278 280 282 284 286 288 289 291 292 293 294 295 296 296 296 296 296 296 296 296 296 295 294 294 293 292 291 289 288 287 286 286 286 285 285 284 284 284 284 284 285 285 286 286 286 287 288 288 288 289 289 290 291 291 290 289 289 289 288 286
283 282 281 280 280 280 280 281 281 280 280 280 279 278 278 278 278 277 277 276 276 275 274 275 277 279 281 283 284 285 287 288 289 290 292 293 294 295 295 295 296 296 297 297 297 296 295 295 294 294 293 291 289 288 286 285 284 284 283 283 283 283 283 282 281 282 283 284 285 286 287 287 287 288 288 287 287 287 287 287 286 285 284 284 283
281 280 280 279 279 280 280 281 281 281 281 280 280 279 278 277 277 277 278 278 278 278 278 279 280 280 282 282 283 285 286 287 288 290 291 292 293 293 294 295 295 296 297 298 297 297 296 295 295 294 293 291 289 287 285 283 282 281 281 281 281 281 281 281 281 282 283 283 284 285 286 286 287 287 286 285 285 285 285 284 282 281 281 282 281
280 280 280 281 281 282 282 282 282 282 282 281 280 279 278 277 277 278 279 279 279 280 280 281 281 282 282 283 284 286 287 288 289 290 291 292 293 293 294 294 295 296 297 297 297 296 295 294 294 293 292 290 289 287 285 283 281 280 279 278 278 278 279 280 281 283 284 285 285 285 286 286 285 284 283 283 282 282 282 281 280 280 280 281 281
279 280 281 282 283 284 284 284 284 283 283 282 280 279 278 279 279 280 280 281 282 282 283 284 284 284 285 285 287 288 290 290 291 292 293 293 294 294 295 295 296 297 297 297 295 295 294 293 292 292 291 289 288 286 284 282 281 280 279 278 277 277 278 279 280 282 284 286 286 286 285 284 282 281 280 280 279 279 280 280 281 281 282 282 282
280 281 282 283 283 284 284 284 284 284 284 283 282 281 280 281 282 283 284 285 286 287 287 288 288 289 289 290 290 292 293 293 293 294 294 294 294 294 295 295 296 296 296 295 294 293 292 291 291 290 289 288 287 285 284 282 281 281 280 279 278 278 278 279 280 282 283 284 284 282 281 280 280 280 280 281 281 282 283 282 282 282 282 282 282
280 281 282 282 283 283 283 283 284 284 284 284 284 284 284 285 287 288 289 290 291 291 292 292 292 292 293 293 294 295 295 295 294 294 294 293 293 293 294 294 295 295 295 294 293 292 291 290 289 288 288 287 286 284 283 282 282 281 281 280 279 280 280 281 281 282 282 281 280 279 279 279 279 280 281 282 283 284 285 284 281 280 281 281 281
280 281 282 283 283 283 283 284 284 285 285 285 285 286 286 288 289 291 292 293 293 293 294 294 294 294 294 294 295 295 295 294 294 293 293 293 292 293 293 293 294 293 293 292 292 291 290 289 289 288 288 287 285 284 283 283 283 282 281 281 281 282 282 282 282 281 280 278 277 277 278 278 278 279 280 281 282 283 283 282 280 279 280 280 279
279 281 282 282 282 282 283 283 284 285 285 285 285 286 286 287 289 291 292 293 293 293 293 293 294 294 294 294 294 294 294 293 293 292 292 292 292 292 292 293 292 292 291 291 291 290 290 290 289 289 289 288 286 285 284 283 283 282 282 283 283 284 283 283 282 281 280 278 277 276 276 277 277 277 277 279 280 280 280 278 279 280 280 278 277
279 280 281 281 281 281 282 283 284 285 286 286 286 286 287 287 288 290 291 291 291 292 292 293 293 294 294 294 293 293 293 293 292 292 292 292 293 293 293 293 292 292 292 292 292 292 292 292 292 292 290 289 287 285 284 284 283 283 283 283 283 283 282 281 281 280 279 279 277 276 276 276 276 277 277 278 278 277 277 278 279 278 277 276 277
279 279 280 280 280 281 281 282 284 286 287 287 287 287 287 287 288 289 289 290 290 291 292 292 293 293 294 294 293 293 293 293 293 293 293 294 294 294 294 295 295 295 295 295 295 295 295 295 295 294 292 290 288 286 285 284 283 283 283 282 281 280 279 279 279 278 278 278 278 278 277 277 276 276 276 277 277 277 277 277 276 275 276 277 278
278 278 279 279 280 281 282 284 285 286 287 288 288 288 287 286 286 287 288 289 289 290 291 292 292 293 293 293 293 292 292 292 293 294 295 295 296 296 297 297 297 297 297 297 297 297 297 296 295 294 292 290 288 286 284 283 283 283 283 281 280 279 278 278 277 277 278 278 279 280 280 279 277 275 275 276 278 277 276 275 276 277 278 278 278
280 280 281 282 283 284 285 286 286 287 287 287 287 287 286 286 286 287 288 289 289 290 291 291 291 292 292 292 291 291 291 292 293 294 295 296 296 297 297 298 298 298 297 297 297 297 296 295 294 292 290 288 286 285 284 284 284 284 284 283 282 281 280 279 277 276 277 279 280 282 282 281 278 277 277 277 276 275 274 275 277 277 277 277 277
283 284 285 286 286 286 286 286 286 286 286 287 286 286 286 286 286 287 287 288 289 289 290 290 290 291 291 291 291 291 292 293 294 295 295 295 295 296 296 296 296 296 296 296 296 295 295 293 292 289 287 285 284 285 285 285 285 285 284 284 283 282 281 280 278 277 277 278 281 283 282 281 279 278 278 276 274 274 275 276 276 275 276 277 278
284 285 285 285 285 285 285 285 285 285 285 285 285 285 285 285 285 286 287 287 287 288 289 289 290 290 290 290 291 291 292 293 294 295 294 294 294 294 294 294 294 294 294 294 294 293 292 291 289 287 285 284 284 285 286 285 285 284 284 284 283 282 281 280 279 277 276 277 279 281 280 279 278 277 276 273 273 274 275 275 275 275 276 277 277
282 283 283 283 283 283 283 283 283 283 283 283 283 284 284 285 285 286 286 286 286 286 287 288 289 289 289 289 290 290 291 292 293 293 293 292 292 292 292 292 292 292 292 292 291 291 290 289 288 287 285 284 284 285 285 284 284 284 284 283 283 282 281 279 277 276 275 276 277 278 278 277 277 276 274 272 272 273 273 273 273 274 275 276 276
279 279 279 280 279 279 279 280 280 280 280 281 282 283 283 284 284 284 285 284 284 285 286 287 287 288 288 288 289 289 290 292 292 292 291 291 291 290 290 291 291 291 291 290 290 289 289 288 288 287 286 285 285 284 284 283 283 284 284 283 282 282 281 278 275 275 275 276 276 276 276 275 274 272 271 270 270 270 270 270 272 273 274 275 275
275 276 276 276 276 277 277 278 278 278 279 280 281 282 283 283 283 283 283 283 284 284 285 286 286 286 287 288 288 289 290 291 291 291 290 290 290 290 290 290 290 290 290 290 289 288 288 287 287 286 285 285 284 284 283 283 283 284 284 283 283 282 281 278 276 276 276 276 275 274 273 272 271 270 270 269 269 269 270 272 273 274 274 274 274
271 272 273 274 275 276 277 277 277 278 280 281 282 282 283 283 283 283 283 283 284 284 285 286 286 286 287 288 289 290 291 291 291 290 290 290 289 289 289 290 290 290 290 289 288 288 287 286 285 285 284 284 284 284 284 284 284 284 284 284 283 282 280 278 277 276 276 275 274 273 273 272 273 273 272 272 272 273 274 275 275 275 274 274 274
268 269 271 273 275 277 278 278 279 280 281 282 282 281 281 281 281 282 283 284 284 285 286 286 287 287 288 289 290 290 291 291 290 290 290 290 290 290 290 289 289 289 289 288 288 287 286 285 285 284 284 284 284 284 284 284 283 283 283 283 283 281 278 276 275 274 273 271 270 270 271 273 274 275 275 275 275 275 275 276 275 275 274 273 272
268 269 271 274 276 278 280 281 282 282 282 281 280 280 280 280 280 280 282 284 286 286 286 287 287 288 289 289 290 290 290 290 290 290 290 290 290 290 289 289 289 289 288 287 287 286 286 286 285 286 285 286 286 286 285 283 283 283 282 282 280 277 275 274 274 274 273 271 270 271 272 274 274 274 274 273 273 273 274 274 273 273 272 271 269
273 275 276 278 279 281 282 283 284 283 283 282 281 280 280 280 280 280 282 285 288 288 287 287 287 288 288 289 289 290 290 290 290 290 290 290 289 289 289 289 289 288 288 288 287 287 287 287 287 287 287 287 287 286 283 281 281 281 281 280 278 275 274 275 275 273 271 271 272 273 274 274 274 273 272 272 272 272 272 271 270 269 268 267 267
277 279 280 281 281 282 282 283 283 283 283 283 282 281 281 281 281 281 282 285 287 288 287 286 286 287 287 288 288 289 289 289 289 289 289 289 289 289 289 289 289 289 288 288 288 288 288 289 289 288 288 288 286 283 280 279 278 278 278 280 281 280 278 276 273 270 270 271 273 274 275 274 273 272 271 271 270 270 269 268 267 266 265 266 266
278 280 281 282 282 282 283 283 283 282 282 282 282 281 281 281 282 283 284 286 287 287 285 285 285 286 286 286 287 287 287 287 287 288 287 287 288 288 288 288 288 289 289 289 289 289 289 289 288 287 286 284 282 278 276 275 275 275 276 279 281 282 281 278 275 273 273 274 275 276 276 276 274 273 272 271 269 268 267 266 265 265 266 266 267
280 281 282 282 282 282 282 282 282 282 282 282 282 282 282 282 283 284 286 286 286 285 285 284 285 285 285 285 286 286 286 286 286 286 286 286 287 287 287 288 288 288 288 289 289 289 288 286 284 282 280 278 275 273 271 271 272 273 276 279 281 282 282 281 280 279 279 278 278 278 278 277 276 274 272 270 268 267 266 265 265 266 267 268 270
279 280 280 280 280 280 280 281 281 282 282 283 283 283 284 284 284 285 285 285 285 285 285 284 284 284 284 285 285 285 285 285 286 286 286 286 286 286 286 287 287 287 287 287 287 286 283 281 279 278 276 274 272 270 270 271 273 276 280 285 286 286 285 284 283 282 281 280 279 278 277 275 273 271 269 267 266 265 265 266 267 268 270 271 273
279 279 280 280 280 280 281 281 282 282 283 284 284 284 284 284 284 284 285 285 285 285 285 285 285 284 285 285 285 285 285 285 285 285 285 285 285 285 286 286 286 286 286 285 283 280 278 277 279 278 275 274 275 277 278 280 281 283 285 287 287 285 284 282 281 279 278 277 276 275 273 272 270 268 267 267 266 267 268 269 271 272 274 276 278
280 281 281 281 282 282 282 283 283 283 283 284 284 284 285 285 285 285 285 285 285 285 285 285 285 285 285 285 285 285 285 285 285 285 285 285 285 285 285 285 284 284 283 281 278 276 274 276 279 278 275 276 280 281 281 281 282 282 283 283 282 281 280 278 276 275 274 272 271 270 269 269 268 268 269 269 269 270 272 273 275 277 279 280 282
281 282 282 283 283 284 284 284 284 284 285 285 285 285 285 285 285 285 285 285 286 286 286 286 285 285 285 284 284 284 284 284 284 284 283 283 284 284 283 281 279 278 276 274 273 275 277 278 278 276 275 278 281 279 276 275 276 277 279 279 279 278 277 275 273 272 271 270 269 269 269 269 270 271 271 272 273 275 276 277 279 280 281 282 284
283 283 284 284 284 285 285 285 285 285 286 286 286 286 286 286 286 286 285 285 285 285 285 285 285 285 284 284 284 284 283 283 282 282 281 282 281 280 277 274 271 270 270 271 274 281 285 283 279 275 274 277 279 278 276 276 276 276 278 279 278 275 273 271 270 270 270 270 270 271 271 272 273 274 275 276 277 278 279 280 281 282 283 284 285
284 285 285 285 285 286 286 286 286 286 287 287 287 286 286 286 286 285 285 285 284 284 284 284 284 284 284 284 284 283 282 282 281 280 279 278 275 272 270 268 268 270 274 278 281 284 285 281 276 273 274 276 277 277 277 277 277 278 278 277 273 269 268 268 269 270 270 271 272 272 273 275 276 277 278 279 279 280 281 282 283 284 285 285 286
285 286 286 287 287 287 287 287 287 287 287 287 287 286 286 286 285 285 285 285 285 285 285 285 284 284 284 284 283 282 281 281 280 277 275 273 271 269 268 269 271 275 279 282 283 282 279 274 272 272 273 274 275 276 277 278 279 280 277 271 266 264 265 266 268 269 270 272 273 274 275 276 277 278 279 280 281 281 282 283 284 285 286 287 287
288 288 289 289 289 289 289 288 288 287 287 286 286 286 285 285 285 285 285 285 285 285 286 286 285 285 284 283 282 282 281 279 276 273 272 273 275 274 273 273 276 279 280 280 278 276 272 270 270 271 273 274 275 276 277 277 279 279 274 267 265 266 267 268 268 269 270 271 273 274 275 276 277 278 279 280 281 282 283 284 285 286 287 287 288
290 290 290 290 289 288 288 287 287 286 286 286 286 286 286 286 285 285 285 284 285 286 286 286 286 284 282 282 281 280 278 276 273 271 273 278 280 279 279 279 280 279 278 276 274 272 270 269 270 273 276 278 278 277 276 276 276 274 269 265 267 269 270 270 271 272 273 274 275 276 277 278 278 279 280 281 282 283 283 284 285 285 285 286 286
291 290 289 289 288 287 287 286 286 286 286 286 287 287 287 287 286 285 284 285 286 286 284 284 284 283 281 280 280 278 278 278 277 276 278 280 280 279 280 280 279 278 276 274 272 271 270 270 272 276 280 280 279 277 276 275 272 268 265 266 269 270 271 273 274 275 275 276 277 277 278 279 279 280 280 281 282 282 283 283 284 284 284 284 285
291 290 289 288 287 287 286 286 286 287 287 288 288 288 288 287 286 285 285 286 286 284 280 279 282 283 280 278 279 280 282 283 283 281 280 280 278 278 278 278 277 276 274 272 271 270 271 274 277 280 280 278 276 274 273 270 268 267 269 271 271 272 273 274 275 275 276 276 277 277 278 278 279 280 280 281 281 282 282 283 283 283 284 284 284
291 290 289 289 288 287 287 287 288 288 289 289 289 287 286 285 285 285 286 286 284 280 276 275 277 278 277 277 278 281 283 283 283 283 282 280 277 276 277 276 275 273 271 270 270 272 275 277 279 278 277 275 273 271 270 268 268 270 272 273 273 273 274 274 275 275 276 276 277 277 278 279 279 280 280 281 281 281 282 283 283 284 284 284 284
292 291 290 289 288 287 287 287 288 289 290 290 288 286 285 285 285 286 285 283 280 277 275 275 275 276 276 276 276 278 279 280 282 283 283 281 277 274 273 273 273 272 272 272 273 275 277 277 277 275 273 271 270 269 269 270 272 273 274 274 274 275 275 275 276 277 278 278 279 279 279 280 280 280 281 281 282 283 283 284 284 284 284 284 285
293 291 290 289 288 287 286 286 286 287 288 288 287 286 285 284 284 282 280 276 273 272 271 272 274 277 279 279 279 278 278 278 279 280 280 280 277 273 271 271 271 272 273 274 275 276 276 275 273 272 270 268 267 268 270 271 273 274 275 276 276 276 277 278 278 279 279 280 280 280 281 281 282 282 283 283 284 284 284 284 284 284 284 285 286
293 292 290 288 287 286 285 284 284 285 286 287 286 285 283 281 280 278 275 271 269 268 268 269 271 275 277 279 280 279 278 277 276 276 275 275 274 272 270 269 270 272 273 273 273 273 272 271 270 269 269 270 271 272 273 274 275 276 277 278 278 278 279 279 279 280 281 281 282 282 283 283 284 284 284 284 283 283 284 284 285 285 286 287 288
Height
5792 5791 5791 5789 5788 5786 5785 5783 5781 5779 5777 5776 5774 5773 5772 5770 5769 5767 5766 5764 5763 5761 5760 5759 5757 5756 5754 5753 5751 5749 5748 5747 5745 5744 5742 5740 5739 5737 5736 5734 5733 5732 5730 5728 5726 5724 5722 5720 5718 5716 5713 5711 5709 5706 5704 5702 5700 5698 5696 5693 5692 5690 5688 5684 5682 5685 5685 5683 5680 5677 5674 5671 5668 5667 5664 5661 5659 5655 5652 5650 5647 5646 5644 5642 5640
5786 5785 5784 5783 5782 5780 5779 5777 5775 5773 5771 5770 5768 5767 5765 5764 5762 5761 5760 5758 5756 5755 5754 5753 5752 5750 5748 5747 5745 5744 5742 5741 5740 5738 5736 5735 5733 5732 5730 5729 5727 5726 5724 5722 5720 5718 5716 5714 5712 5710 5707 5705 5703 5701 5699 5697 5694 5692 5690 5688 5686 5684 5682 5679 5677 5677 5677 5675 5673 5670 5666 5663 5661 5659 5656 5654 5651 5647 5645 5642 5640 5638 5636 5635 5632
5779 5778 5778 5777 5775 5774 5772 5771 5769 5768 5766 5764 5763 5761 5759 5757 5756 5755 5753 5752 5750 5749 5748 5747 5746 5744 5743 5741 5739 5737 5737 5735 5734 5732 5731 5729 5727 5726 5724 5723 5722 5720 5718 5717 5714 5712 5710 5709 5707 5704 5701 5699 5697 5695 5693 5690 5688 5686 5684 5681 5679 5678 5676 5673 5670 5669 5668 5667 5665 5662 5659 5655 5653 5651 5649 5646 5644 5641 5638 5636 5633 5631 5629 5627 5624
5772 5772 5771 5770 5769 5768 5766 5765 5763 5762 5760 5759 5757 5755 5753 5751 5749 5748 5746 5745 5744 5743 5742 5741 5739 5738 5737 5735 5733 5732 5730 5729 5728 5726 5725 5723 5721 5720 5718 5717 5716 5714 5712 5710 5708 5706 5704 5703 5701 5698 5695 5693 5691 5689 5686 5683 5680 5678 5676 5674 5671 5670 5669 5665 5662 5661 5658 5657 5656 5654 5651 5647 5644 5642 5640 5638 5636 5635 5632 5629 5626 5624 5621 5618 5615
5766 5765 5764 5763 5762 5761 5760 5758 5757 5756 5754 5753 5751 5748 5747 5745 5743 5741 5740 5739 5738 5737 5736 5735 5733 5732 5731 5729 5728 5726 5725 5723 5722 5720 5718 5716 5715 5714 5712 5710 5709 5707 5706 5704 5702 5699 5698 5696 5694 5691 5689 5687 5685 5682 5679 5677 5673 5671 5668 5666 5664 5662 5661 5657 5654 5653 5650 5648 5646 5644 5641 5638 5635 5633 5632 5630 5628 5626 5624 5622 5620 5616 5613 5610 5608
5760 5759 5758 5757 5756 5754 5753 5752 5750 5749 5747 5746 5744 5742 5740 5738 5736 5735 5733 5732 5731 5730 5729 5728 5727 5726 5725 5723 5722 5721 5719 5717 5716 5714 5712 5710 5708 5707 5706 5704 5703 5701 5699 5697 5695 5693 5691 5690 5688 5685 5682 5680 5678 5675 5672 5669 5666 5664 5662 5659 5657 5654 5652 5650 5647 5645 5643 5639 5636 5634 5631 5629 5627 5626 5625 5622 5620 5619 5617 5615 5612 5609 5606 5603 5600
5753 5752 5752 5750 5749 5747 5746 5744 5743 5741 5740 5738 5736 5734 5733 5731 5730 5728 5727 5726 5725 5724 5723 5722 5721 5720 5719 5718 5717 5715 5714 5712 5710 5708 5705 5703 5702 5700 5699 5698 5696 5695 5693 5691 5689 5686 5685 5683 5681 5678 5676 5673 5671 5668 5665 5662 5659 5657 5655 5652 5649 5646 5644 5642 5640 5637 5635 5632 5630 5627 5625 5622 5620 5620 5619 5617 5613 5612 5610 5607 5603 5601 5598 5595 5592
5745 5744 5744 5742 5741 5739 5738 5736 5735 5733 5731 5730 5728 5727 5725 5724 5723 5722 5720 5719 5718 5717 5717 5716 5715 5715 5713 5712 5711 5709 5708 5706 5703 5701 5699 5697 5695 5694 5692 5691 5689 5688 5686 5685 5682 5680 5678 5676 5673 5671 5668 5666 5663 5661 5658 5655 5652 5650 5647 5644 5640 5638 5635 5634 5631 5629 5627 5625 5624 5622 5618 5616 5614 5613 5612 5610 5607 5605 5603 5599 5595 5592 5589 5587 5584
5736 5735 5735 5734 5732 5731 5730 5728 5727 5725 5723 5722 5720 5719 5718 5716 5716 5715 5713 5713 5712 5711 5711 5710 5709 5708 5707 5706 5704 5703 5701 5699 5696 5693 5691 5689 5688 5686 5685 5683 5682 5681 5679 5678 5676 5673 5671 5669 5666 5664 5661 5658 5655 5652 5650 5647 5644 5642 5640 5636 5632 5629 5627 5625 5623 5621 5618 5616 5615 5613 5610 5608 5607 5606 5604 5602 5601 5598 5595 5591 5587 5584 5581 5578 5575
5728 5726 5725 5724 5723 5722 5721 5719 5718 5716 5715 5713 5712 5711 5710 5709 5708 5707 5707 5706 5705 5705 5704 5704 5702 5701 5700 5699 5698 5696 5694 5692 5689 5686 5684 5681 5680 5678 5677 5676 5674 5673 5671 5670 5668 5666 5663 5661 5659 5656 5653 5650 5647 5644 5641 5638 5635 5633 5631 5627 5624 5621 5619 5616 5614 5612 5610 5608 5606 5604 5601 5600 5599 5597 5595 5593 5591 5588 5584 5582 5579 5576 5573 5570 5567
5720 5719 5718 5716 5715 5713 5712 5711 5709 5708 5707 5706 5705 5704 5703 5702 5701 5700 5700 5699 5698 5698 5698 5697 5696 5694 5693 5692 5691 5689 5687 5684 5681 5678 5676 5673 5671 5669 5668 5667 5666 5665 5663 5661 5660 5657 5655 5652 5650 5648 5645 5642 5639 5636 5633 5629 5626 5624 5621 5618 5615 5613 5611 5608 5606 5603 5600 5598 5597 5594 5593 5592 5590 5588 5585 5582 5580 5577 5574 5572 5569 5566 5564 5562 5559
5712 5711 5710 5708 5706 5705 5704 5703 5702 5701 5700 5699 5698 5697 5696 5695 5694 5693 5693 5692 5692 5692 5691 5690 5689 5687 5686 5685 5684 5682 5680 5677 5674 5671 5668 5665 5662 5660 5659 5658 5657 5656 5654 5652 5650 5648 5645 5643 5641 5639 5637 5634 5630 5627 5624 5621 5617 5615 5612 5609 5606 5604 5603 5601 5598 5595 5592 5590 5587 5585 5585 5583 5580 5578 5575 5572 5569 5567 5565 5562 5559 5557 5556 5553 5551
5703 5702 5701 5700 5698 5697 5696 5696 5695 5694 5693 5692 5691 5690 5689 5688 5687 5686 5686 5686 5685 5685 5683 5683 5682 5680 5678 5678 5676 5675 5673 5669 5666 5662 5659 5656 5653 5650 5650 5648 5647 5646 5644 5642 5640 5638 5635 5633 5632 5630 5627 5624 5621 5618 5615 5612 5608 5605 5602 5599 5597 5595 5593 5591 5588 5586 5583 5580 5577 5576 5576 5574 5571 5569 5566 5562 5559 5557 5555 5552 5550 5548 5546 5545 5543
5694 5693 5692 5691 5690 5690 5689 5689 5688 5687 5686 5685 5684 5683 5682 5681 5680 5679 5679 5679 5678 5677 5676 5675 5674 5672 5670 5669 5668 5667 5665 5661 5657 5653 5650 5647 5644 5641 5640 5638 5637 5636 5634 5631 5629 5627 5625 5623 5621 5620 5617 5614 5611 5608 5605 5602 5599 5596 5593 5590 5588 5586 5584 5581 5579 5576 5573 5571 5569 5568 5567 5564 5562 5560 5556 5551 5548 5547 5545 5543 5541 5538 5537 5535 5533
5686 5685 5684 5683 5682 5682 5681 5681 5680 5680 5679 5678 5677 5676 5674 5674 5673 5672 5672 5671 5670 5669 5668 5667 5666 5664 5662 5660 5659 5658 5656 5651 5647 5644 5640 5637 5634 5631 5629 5627 5626 5625 5623 5621 5618 5617 5615 5612 5610 5609 5606 5603 5600 5596 5593 5591 5588 5585 5583 5581 5579 5576 5574 5572 5570 5567 5563 5561 5559 5558 5557 5555 5552 5549 5544 5540 5538 5537 5535 5534 5532 5529 5527 5526 5524
5678 5677 5676 5675 5674 5673 5672 5672 5672 5671 5671 5670 5669 5668 5667 5666 5664 5663 5664 5663 5661 5660 5659 5657 5656 5654 5652 5650 5648 5648 5646 5640 5636 5633 5629 5625 5622 5620 5618 5616 5615 5614 5612 5610 5608 5606 5604 5601 5599 5597 5595 5592 5589 5585 5582 5579 5576 5574 5572 5570 5568 5566 5564 5562 5559 5556 5553 5551 5549 5547 5546 5543 5540 5537 5533 5529 5528 5527 5526 5524 5523 5520 5518 5516 5515
5670 5669 5668 5667 5666 5664 5663 5663 5663 5662 5661 5661 5660 5659 5658 5656 5655 5654 5653 5653 5651 5649 5648 5647 5645 5643 5641 5638 5635 5635 5634 5629 5624 5621 5617 5613 5611 5609 5607 5605 5604 5603 5602 5600 5597 5595 5593 5590 5587 5585 5583 5581 5577 5573 5570 5566 5564 5562 5560 5558 5556 5554 5553 5551 5548 5545 5544 5541 5537 5535 5534 5532 5529 5525 5522 5519 5519 5519 5517 5515 5513 5512 5509 5508 5506
5662 5661 5660 5658 5657 5656 5655 5654 5654 5653 5652 5650 5649 5648 5646 5644 5643 5641 5640 5640 5639 5637 5635 5634 5632 5630 5627 5625 5622 5621 5621 5617 5612 5609 5607 5602 5599 5598 5596 5594 5594 5592 5590 5589 5587 5584 5581 5579 5575 5572 5571 5569 5564 5560 5557 5553 5551 5550 5548 5544 5543 5542 5542 5538 5535 5535 5533 5529 5526 5524 5522 5521 5518 5516 5513 5511 5509 5509 5508 5506 5504 5502 5500 5499 5497
5653 5653 5651 5650 5648 5646 5645 5644 5644 5643 5642 5640 5638 5637 5635 5633 5631 5629 5627 5627 5626 5625 5623 5621 5620 5618 5615 5613 5611 5609 5608 5607 5602 5599 5597 5593 5589 5587 5585 5583 5582 5581 5578 5576 5575 5572 5569 5566 5563 5560 5557 5555 5551 5547 5544 5540 5538 5537 5535 5531 5530 5531 5528 5524 5522 5522 5520 5516 5515 5513 5511 5509 5508 5506 5504 5502 5500 5499 5498 5496 5495 5493 5491 5489 5487
5645 5644 5643 5641 5639 5637 5636 5634 5633 5632 5631 5630 5629 5627 5625 5623 5621 5619 5617 5615 5614 5613 5612 5609 5609 5608 5605 5603 5602 5599 5597 5596 5593 5588 5586 5582 5578 5575 5573 5571 5569 5567 5564 5563 5561 5559 5556 5553 5550 5547 5543 5541 5539 5535 5532 5529 5525 5523 5522 5520 5519 5518 5514 5510 5509 5508 5506 5504 5503 5502 5500 5499 5497 5495 5493 5491 5490 5489 5488 5487 5485 5484 5482 5480 5477
5637 5635 5634 5632 5630 5628 5626 5624 5623 5621 5620 5619 5619 5618 5615 5612 5611 5609 5607 5605 5603 5602 5601 5598 5596 5597 5595 5592 5590 5588 5585 5583 5581 5577 5573 5571 5567 5563 5560 5558 5555 5551 5550 5550 5548 5545 5543 5540 5537 5534 5531 5528 5526 5522 5520 5517 5514 5512 5510 5509 5508 5505 5501 5499 5498 5496 5494 5494 5492 5490 5489 5488 5486 5484 5483 5481 5479 5478 5478 5477 5476 5473 5472 5470 5469
5628 5626 5624 5622 5620 5618 5616 5614 5612 5611 5609 5608 5608 5608 5605 5601 5600 5598 5596 5594 5592 5591 5589 5586 5583 5584 5584 5581 5579 5576 5573 5569 5567 5564 5561 5557 5554 5549 5546 5544 5540 5535 5535 5536 5534 5531 5529 5526 5524 5521 5518 5516 5514 5511 5508 5506 5503 5501 5500 5498 5496 5493 5490 5488 5487 5485 5483 5483 5481 5479 5478 5476 5474 5473 5472 5470 5469 5468 5468 5467 5464 5463 5462 5462 5462
5618 5616 5614 5611 5610 5608 5606 5604 5602 5600 5598 5597 5596 5596 5594 5591 5589 5587 5584 5582 5581 5579 5577 5574 5572 5572 5572 5571 5568 5565 5561 5558 5555 5552 5548 5544 5539 5536 5532 5529 5526 5521 5520 5521 5520 5517 5515 5513 5511 5509 5507 5505 5502 5500 5498 5495 5492 5491 5490 5487 5484 5482 5480 5478 5476 5475 5473 5471 5470 5468 5467 5466 5464 5463 5462 5460 5459 5458 5458 5456 5454 5453 5454 5453 5453
5607 5605 5603 5601 5599 5597 5595 5593 5591 5589 5587 5585 5584 5584 5582 5579 5577 5575 5572 5570 5568 5567 5566 5563 5561 5560 5560 5559 5558 5554 5550 5547 5544 5540 5536 5531 5527 5524 5520 5517 5513 5509 5507 5507 5507 5504 5503 5501 5499 5497 5496 5494 5491 5489 5487 5485 5482 5480 5478 5475 5472 5471 5469 5468 5466 5464 5462 5461 5459 5458 5457 5456 5454 5453 5452 5451 5450 5449 5447 5446 5445 5445 5444 5444 5444
5596 5593 5591 5589 5587 5585 5584 5582 5580 5577 5575 5573 5572 5571 5569 5567 5566 5564 5561 5558 5556 5555 5554 5552 5549 5548 5547 5546 5545 5543 5539 5536 5533 5528 5524 5520 5516 5513 5510 5506 5503 5498 5496 5495 5494 5493 5491 5490 5488 5486 5485 5482 5480 5478 5476 5474 5471 5469 5466 5464 5461 5459 5458 5457 5455 5453 5452 5451 5450 5448 5447 5446 5445 5444 5443 5442 5440 5439 5438 5437 5437 5436 5435 5435 5435
5584 5582 5579 5578 5576 5573 5572 5571 5569 5567 5565 5562 5560 5559 5557 5555 5554 5553 5551 5548 5545 5543 5542 5540 5538 5536 5535 5533 5532 5531 5529 5525 5521 5517 5512 5508 5506 5503 5499 5496 5493 5488 5486 5484 5483 5481 5480 5478 5476 5475 5473 5471 5469 5466 5464 5462 5459 5457 5455 5453 5450 5448 5447 5446 5445 5443 5442 5441 5440 5439 5437 5435 5435 5435 5434 5433 5431 5430 5430 5429 5428 5427 5426 5426 5426
5574 5571 5568 5567 5565 5562 5560 5559 5558 5557 5554 5552 5549 5548 5546 5543 5542 5542 5541 5537 5534 5532 5530 5528 5526 5524 5521 5520 5519 5518 5517 5514 5510 5505 5501 5497 5494 5491 5488 5485 5482 5478 5475 5474 5471 5469 5468 5467 5465 5463 5461 5459 5457 5455 5453 5450 5447 5445 5444 5442 5440 5438 5436 5435 5434 5433 5432 5431 5430 5429 5427 5426 5426 5425 5424 5423 5422 5422 5421 5421 5420 5419 5418 5417 5417
5562 5561 5558 5556 5554 5552 5549 5548 5547 5545 5544 5542 5539 5537 5535 5533 5530 5530 5530 5525 5521 5520 5518 5516 5514 5511 5508 5506 5506 5505 5505 5503 5498 5493 5490 5486 5482 5479 5476 5473 5470 5467 5464 5462 5459 5458 5457 5455 5453 5451 5449 5447 5445 5443 5441 5438 5436 5434 5432 5430 5429 5427 5425 5424 5423 5423 5422 5421 5420 5419 5418 5417 5416 5415 5414 5413 5413 5412 5412 5412 5412 5412 5411 5410 5409
5550 5548 5545 5543 5542 5540 5538 5537 5535 5533 5532 5531 5530 5527 5525 5521 5518 5518 5519 5514 5507 5505 5504 5503 5501 5497 5494 5493 5492 5489 5490 5490 5485 5479 5477 5474 5470 5466 5464 5461 5457 5455 5453 5449 5447 5446 5445 5443 5441 5439 5437 5435 5433 5431 5429 5427 5425 5423 5421 5419 5417 5417 5415 5414 5413 5413 5412 5411 5410 5409 5408 5407 5407 5406 5405 5405 5404 5404 5404 5405 5404 5404 5403 5402 5402
5538 5536 5533 5532 5530 5528 5527 5525 5523 5521 5519 5518 5517 5516 5515 5511 5506 5503 5504 5503 5497 5491 5489 5488 5487 5483 5480 5480 5478 5474 5474 5474 5470 5465 5462 5460 5457 5453 5451 5448 5445 5442 5440 5437 5434 5434 5433 5431 5429 5428 5425 5423 5422 5420 5418 5416 5414 5412 5410 5408 5407 5407 5406 5404 5404 5403 5403 5402 5401 5401 5400 5399 5398 5398 5397 5397 5397 5396 5397 5397 5397 5397 5396 5395 5395
5527 5526 5523 5521 5519 5517 5515 5514 5512 5509 5507 5505 5502 5501 5502 5502 5499 5493 5488 5487 5486 5482 5477 5474 5472 5468 5464 5464 5464 5461 5458 5457 5454 5451 5448 5445 5442 5440 5437 5434 5432 5430 5427 5425 5423 5423 5421 5419 5417 5416 5414 5413 5411 5409 5407 5406 5404 5402 5400 5398 5397 5397 5397 5396 5395 5394 5394 5394 5393 5392 5392 5391 5390 5390 5390 5389 5389 5389 5389 5389 5389 5389 5389 5388 5388
5514 5513 5511 5508 5506 5504 5502 5500 5498 5496 5494 5492 5489 5486 5484 5486 5488 5488 5481 5474 5471 5470 5466 5462 5458 5454 5450 5447 5447 5447 5445 5441 5438 5436 5433 5430 5428 5426 5424 5422 5420 5418 5415 5413 5413 5412 5410 5408 5406 5405 5403 5402 5401 5399 5397 5396 5394 5392 5390 5389 5388 5389 5388 5387 5386 5386 5386 5385 5385 5385 5384 5384 5383 5383 5382 5382 5382 5382 5382 5382 5382 5382 5382 5382 5382
5499 5499 5496 5494 5492 5490 5488 5486 5484 5481 5479 5477 5475 5473 5470 5467 5468 5471 5471 5466 5460 5456 5454 5450 5445 5440 5437 5433 5432 5431 5430 5428 5425 5422 5420 5417 5415 5413 5411 5410 5408 5406 5404 5403 5402 5401 5399 5397 5396 5394 5393 5392 5390 5389 5387 5386 5385 5383 5381 5380 5379 5379 5379 5379 5378 5378 5378 5378 5378 5377 5377 5376 5376 5375 5375 5375 5375 5375 5375 5375 5375 5375 5375 5375 5375
5487 5485 5482 5479 5478 5477 5475 5472 5470 5468 5466 5463 5460 5458 5456 5453 5450 5449 5451 5452 5451 5447 5443 5438 5432 5427 5424 5421 5419 5417 5416 5415 5413 5410 5408 5405 5403 5401 5400 5398 5397 5395 5393 5392 5391 5390 5388 5387 5385 5384 5382 5381 5380 5379 5378 5377 5376 5375 5373 5372 5371 5371 5370 5370 5370 5370 5370 5371 5370 5370 5370 5369 5369 5368 5368 5368 5369 5369 5369 5369 5368 5369 5369 5368 5368
5474 5472 5469 5465 5463 5463 5461 5459 5457 5454 5452 5451 5448 5445 5442 5440 5437 5434 5432 5433 5433 5433 5430 5426 5420 5415 5412 5410 5408 5406 5403 5402 5401 5399 5396 5394 5392 5390 5389 5387 5385 5384 5382 5381 5380 5379 5377 5376 5375 5374 5373 5372 5371 5371 5370 5369 5368 5367 5366 5365 5365 5364 5364 5363 5363 5363 5363 5364 5363 5363 5363 5363 5363 5362 5362 5362 5362 5362 5362 5362 5362 5362 5362 5362 5362
5461 5459 5456 5452 5449 5448 5446 5445 5442 5440 5438 5436 5435 5432 5428 5426 5423 5420 5418 5416 5415 5414 5414 5412 5408 5404 5400 5398 5397 5395 5392 5390 5388 5387 5385 5382 5381 5380 5378 5376 5374 5373 5372 5370 5369 5368 5367 5366 5365 5365 5364 5364 5363 5363 5362 5361 5360 5360 5359 5358 5358 5358 5358 5357 5357 5357 5357 5357 5357 5357 5357 5357 5357 5356 5356 5356 5356 5356 5356 5356 5356 5356 5356 5356 5356
5449 5447 5444 5441 5437 5435 5433 5431 5428 5424 5421 5420 5418 5415 5413 5411 5408 5405 5403 5401 5399 5398 5397 5397 5394 5391 5388 5386 5384 5382 5381 5379 5376 5375 5373 5371 5369 5368 5367 5365 5363 5362 5361 5360 5359 5358 5358 5357 5357 5357 5356 5355 5355 5355 5354 5353 5353 5352 5352 5351 5351 5351 5351 5351 5351 5351 5351 5351 5351 5350 5350 5350 5350 5350 5350 5350 5350 5350 5350 5349 5349 5350 5350 5350 5350
5436 5433 5430 5427 5424 5421 5418 5416 5414 5410 5406 5404 5402 5399 5396 5395 5393 5391 5388 5386 5385 5383 5381 5381 5379 5377 5375 5372 5370 5369 5368 5366 5364 5362 5361 5358 5357 5357 5355 5353 5352 5351 5351 5350 5349 5349 5349 5349 5349 5349 5348 5348 5348 5347 5346 5346 5346 5345 5345 5345 5345 5345 5345 5345 5345 5345 5345 5345 5344 5344 5344 5344 5344 5344 5344 5344 5344 5344 5344 5344 5344 5344 5344 5344 5344
5422 5419 5415 5411 5408 5406 5403 5401 5399 5396 5392 5390 5387 5385 5382 5380 5378 5376 5373 5371 5370 5368 5367 5365 5364 5362 5361 5358 5357 5356 5355 5353 5352 5350 5348 5346 5345 5345 5344 5343 5341 5341 5341 5341 5341 5341 5341 5342 5342 5342 5341 5341 5341 5340 5340 5340 5340 5340 5339 5339 5339 5339 5339 5339 5338 5338 5338 5338 5338 5338 5338 5338 5339 5339 5339 5339 5339 5339 5339 5338 5338 5338 5338 5337 5337
5408 5405 5402 5398 5394 5391 5388 5385 5383 5380 5378 5375 5373 5371 5368 5366 5364 5361 5359 5358 5356 5355 5353 5351 5350 5348 5346 5345 5345 5344 5342 5341 5340 5339 5337 5335 5335 5334 5334 5333 5333 5333 5333 5333 5333 5334 5334 5335 5335 5335 5335 5335 5334 5334 5334 5334 5334 5333 5333 5333 5333 5333 5332 5332 5332 5332 5332 5332 5332 5332 5332 5333 5333 5333 5333 5333 5333 5332 5332 5332 5331 5331 5330 5330 5329
5393 5391 5388 5384 5380 5377 5374 5371 5368 5365 5363 5361 5359 5356 5354 5353 5350 5348 5346 5344 5343 5342 5340 5339 5336 5334 5333 5332 5332 5331 5330 5329 5329 5328 5327 5326 5325 5325 5325 5325 5325 5325 5326 5326 5326 5327 5327 5328 5328 5328 5328 5328 5327 5327 5327 5327 5327 5326 5326 5326 5326 5326 5326 5326 5326 5326 5326 5326 5326 5326 5326 5326 5326 5326 5326 5326 5326 5326 5325 5325 5325 5324 5323 5322 5321
5379 5376 5374 5370 5367 5364 5361 5358 5355 5352 5350 5347 5345 5343 5340 5339 5337 5334 5332 5331 5330 5329 5328 5327 5325 5323 5321 5321 5320 5319 5318 5318 5318 5318 5318 5318 5318 5318 5318 5318 5318 5318 5318 5319 5320 5320 5320 5321 5321 5321 5321 5321 5320 5320 5320 5320 5320 5320 5319 5319 5320 5319 5319 5319 5320 5320 5320 5320 5320 5320 5320 5320 5320 5320 5320 5320 5319 5319 5318 5318 5317 5316 5315 5314 5313
5365 5363 5360 5357 5354 5351 5348 5345 5343 5340 5337 5335 5333 5330 5328 5326 5324 5322 5320 5319 5318 5317 5317 5315 5314 5312 5311 5310 5310 5309 5308 5308 5309 5310 5310 5311 5310 5311 5311 5311 5311 5311 5311 5312 5313 5313 5313 5314 5314 5314 5314 5313 5313 5313 5313 5313 5313 5313 5313 5313 5313 5313 5313 5313 5313 5313 5313 5313 5313 5313 5313 5313 5313 5313 5313 5313 5312 5311 5311 5310 5309 5308 5307 5306 5304
5352 5349 5347 5344 5341 5338 5335 5332 5331 5328 5325 5323 5320 5318 5317 5315 5313 5311 5309 5308 5307 5307 5306 5305 5304 5303 5302 5301 5301 5300 5300 5301 5302 5303 5303 5303 5303 5303 5303 5303 5304 5304 5305 5305 5306 5306 5307 5307 5307 5307 5306 5306 5306 5306 5306 5306 5306 5307 5307 5307 5307 5306 5306 5306 5306 5306 5307 5307 5306 5306 5306 5306 5306 5306 5305 5305 5304 5303 5303 5302 5301 5299 5298 5297 5296
5339 5337 5334 5332 5329 5326 5323 5320 5318 5316 5314 5312 5309 5307 5306 5304 5303 5301 5299 5299 5299 5299 5297 5296 5296 5295 5294 5294 5293 5293 5294 5294 5295 5296 5296 5296 5296 5296 5296 5297 5297 5298 5298 5299 5299 5300 5300 5300 5300 5300 5300 5299 5299 5300 5300 5300 5300 5300 5300 5300 5300 5300 5300 5300 5300 5300 5300 5299 5299 5299 5298 5298 5298 5298 5297 5297 5296 5295 5295 5294 5293 5292 5291 5289 5288
5326 5324 5322 5320 5317 5315 5312 5309 5307 5305 5304 5302 5300 5298 5296 5295 5294 5292 5291 5291 5291 5291 5290 5290 5289 5288 5288 5288 5288 5288 5288 5288 5289 5289 5289 5289 5290 5290 5290 5290 5291 5291 5292 5293 5293 5293 5294 5293 5293 5293 5293 5293 5293 5293 5293 5293 5293 5293 5294 5294 5294 5294 5293 5293 5293 5293 5293 5292 5292 5291 5291 5291 5290 5290 5290 5289 5288 5288 5287 5286 5285 5284 5283 5281 5280
5315 5313 5311 5309 5307 5304 5302 5300 5298 5296 5294 5293 5291 5290 5288 5287 5286 5285 5284 5283 5283 5283 5284 5284 5283 5283 5283 5283 5283 5283 5283 5283 5283 5283 5283 5283 5284 5284 5284 5284 5285 5285 5286 5286 5286 5287 5287 5287 5286 5286 5287 5287 5287 5287 5287 5287 5287 5287 5287 5287 5287 5287 5286 5286 5286 5286 5285 5285 5285 5284 5284 5284 5283 5283 5282 5282 5281 5280 5279 5278 5277 5275 5274 5273 5271
5306 5303 5301 5299 5298 5295 5293 5291 5289 5288 5286 5285 5284 5283 5282 5281 5280 5278 5277 5277 5277 5277 5278 5278 5278 5278 5278 5278 5278 5278 5278 5278 5278 5278 5278 5278 5278 5278 5278 5279 5279 5279 5280 5280 5280 5280 5280 5280 5280 5280 5281 5281 5281 5281 5281 5281 5281 5281 5280 5280 5280 5280 5280 5279 5279 5279 5278 5278 5278 5278 5277 5277 5276 5275 5275 5274 5273 5272 5270 5269 5268 5266 5265 5264 5262
5297 5295 5293 5291 5289 5287 5286 5284 5282 5281 5280 5278 5277 5276 5275 5275 5274 5273 5272 5271 5271 5272 5272 5272 5272 5272 5272 5272 5272 5273 5273 5273 5273 5273 5273 5273 5273 5273 5273 5273 5273 5274 5274 5274 5274 5274 5274 5274 5274 5275 5275 5275 5275 5275 5275 5275 5274 5274 5274 5274 5274 5273 5273 5273 5272 5272 5271 5271 5271 5270 5270 5269 5268 5267 5266 5265 5264 5262 5261 5260 5259 5257 5256 5254 5253
5289 5287 5285 5283 5281 5280 5279 5278 5277 5275 5274 5273 5271 5270 5270 5269 5268 5268 5267 5267 5266 5266 5266 5266 5266 5266 5266 5266 5267 5267 5267 5267 5267 5267 5267 5267 5267 5267 5267 5268 5268 5268 5268 5268 5268 5268 5268 5268 5268 5269 5269 5269 5269 5269 5268 5268 5268 5268 5268 5267 5267 5267 5267 5266 5266 5265 5264 5264 5263 5262 5261 5261 5260 5258 5257 5256 5255 5253 5252 5251 5249 5248 5246 5244 5243
5282 5280 5278 5276 5275 5274 5273 5272 5271 5270 5269 5268 5266 5265 5264 5264 5263 5263 5262 5262 5261 5261 5261 5261 5261 5261 5261 5261 5261 5261 5261 5261 5261 5261 5261 5261 5261 5262 5262 5262 5262 5262 5262 5262 5262 5262 5262 5262 5262 5262 5262 5263 5262 5262 5262 5262 5262 5261 5261 5261 5261 5260 5260 5259 5258 5258 5257 5256 5255 5254 5253 5252 5251 5249 5248 5247 5246 5244 5243 5241 5240 5238 5236 5234 5232